2022-02-17 00:03:04 r, 16.63m,0000000019Hz,0000024487c,0000000.053s,-012.6C,00002191
2022-02-17 00:13:04 r, 16.55m,0000000021Hz,0000022848c,0000000.050s,-012.6C,00002191
2022-02-17 00:23:05 r, 16.50m,0000000022Hz,0000021809c,0000000.047s,-012.9C,00002191
2022-02-17 00:33:04 r, 16.93m,0000000014Hz,0000032399c,0000000.070s,-013.3C,00002191
2022-02-17 00:43:04 r, 16.34m,0000000025Hz,0000018838c,0000000.041s,-013.6C,00002191
2022-02-17 00:53:05 r, 16.23m,0000000027Hz,0000017103c,0000000.037s,-013.6C,00002191
2022-02-17 01:03:04 r, 16.14m,0000000030Hz,0000015625c,0000000.034s,-013.6C,00002191
2022-02-17 01:13:04 r, 16.07m,0000000032Hz,0000014659c,0000000.032s,-013.6C,00002191
2022-02-17 01:23:07 r, 16.02m,0000000032Hz,0000014046c,0000000.030s,-013.6C,00002191
2022-02-17 01:33:04 r, 15.98m,0000000033Hz,0000013544c,0000000.029s,-013.6C,00002191
2022-02-17 01:43:04 r, 15.95m,0000000035Hz,0000013201c,0000000.029s,-013.9C,00002191
2022-02-17 01:53:07 r, 15.99m,0000000033Hz,0000013664c,0000000.030s,-013.9C,00002191
2022-02-17 02:03:04 r, 16.08m,0000000032Hz,0000014813c,0000000.032s,-014.2C,00002191
2022-02-17 02:13:04 r, 16.20m,0000000028Hz,0000016637c,0000000.036s,-014.2C,00002191
2022-02-17 02:23:05 r, 16.38m,0000000024Hz,0000019539c,0000000.042s,-014.2C,00002191
2022-02-17 02:33:04 r, 16.57m,0000000020Hz,0000023276c,0000000.051s,-014.6C,00002191
2022-02-17 02:43:04 r, 16.74m,0000000016Hz,0000027288c,0000000.059s,-014.6C,00002191
2022-02-17 02:53:05 r, 16.89m,0000000014Hz,0000031183c,0000000.068s,-014.6C,00002191
2022-02-17 03:03:04 r, 17.02m,0000000013Hz,0000035366c,0000000.077s,-014.9C,00002191
2022-02-17 03:13:04 r, 17.11m,0000000012Hz,0000038550c,0000000.084s,-015.2C,00002191
2022-02-17 03:23:06 r, 17.20m,0000000011Hz,0000041943c,0000000.091s,-015.2C,00002191
2022-02-17 03:33:04 r, 17.30m,0000000010Hz,0000045342c,0000000.098s,-015.5C,00002191
2022-02-17 03:43:04 r, 17.36m,0000000010Hz,0000047923c,0000000.104s,-015.5C,00002191
2022-02-17 03:53:07 r, 17.42m,0000000009Hz,0000050755c,0000000.110s,-015.8C,00002191
2022-02-17 04:03:04 r, 17.48m,0000000008Hz,0000053906c,0000000.117s,-015.8C,00002191
2022-02-17 04:13:04 r, 17.54m,0000000008Hz,0000057053c,0000000.124s,-016.2C,00002191
2022-02-17 04:23:07 r, 17.60m,0000000008Hz,0000059987c,0000000.130s,-016.2C,00002191
2022-02-17 04:33:04 r, 17.66m,0000000007Hz,0000063527c,0000000.138s,-016.5C,00002191
2022-02-17 04:43:04 r, 17.71m,0000000007Hz,0000066927c,0000000.145s,-016.8C,00002191
2022-02-17 04:53:05 r, 17.77m,0000000007Hz,0000070449c,0000000.153s,-016.8C,00002191
2022-02-17 05:03:04 r, 17.82m,0000000006Hz,0000073888c,0000000.160s,-016.5C,00002191
2022-02-17 05:13:04 r, 17.88m,0000000006Hz,0000077935c,0000000.169s,-016.5C,00002191
2022-02-17 05:23:04 r, 17.94m,0000000006Hz,0000082436c,0000000.179s,-016.5C,00002191
2022-02-17 05:33:04 r, 18.00m,0000000006Hz,0000087315c,0000000.189s,-016.8C,00002191
2022-02-17 05:43:04 r, 18.06m,0000000005Hz,0000092146c,0000000.200s,-017.1C,00002191
2022-02-17 05:53:07 r, 18.12m,0000000005Hz,0000097066c,0000000.211s,-017.1C,00002191
2022-02-17 06:03:05 r, 18.18m,0000000005Hz,0000102211c,0000000.222s,-017.5C,00002191
2022-02-17 06:13:04 r, 18.22m,0000000004Hz,0000106015c,0000000.230s,-017.5C,00002191
2022-02-17 06:23:07 r, 18.18m,0000000005Hz,0000102077c,0000000.222s,-017.5C,00002191
2022-02-17 06:33:05 r, 17.87m,0000000006Hz,0000076862c,0000000.167s,-017.5C,00002191
2022-02-17 06:43:04 r, 16.96m,0000000014Hz,0000033471c,0000000.073s,-017.1C,00002191
2022-02-17 06:53:05 r, 15.30m,0000000063Hz,0000007249c,0000000.016s,-017.1C,00002191
2022-02-17 07:03:06 r, 13.21m,0000000439Hz,0000000000c,0000000.000s,-017.1C,00002191
2022-02-17 07:13:04 r, 11.11m,0000003043Hz,0000000000c,0000000.000s,-017.5C,00002191
2022-02-17 07:23:06 r, 09.30m,0000016177Hz,0000000000c,0000000.000s,-017.5C,00002191
2022-02-17 07:33:05 r, 07.96m,0000055355Hz,0000000000c,0000000.000s,-017.5C,00002191
2022-02-17 07:43:04 r, 07.04m,0000128696Hz,0000000000c,0000000.000s,-017.5C,00002191
2022-02-17 07:53:07 r, 06.40m,0000232730Hz,0000000000c,0000000.000s,-017.1C,00002191
2022-02-17 08:03:05 r, 05.94m,0000357308Hz,0000000000c,0000000.000s,-015.8C,00002191
2022-02-17 08:13:04 r, 00.00m,0000489100Hz,0000000000c,0000000.000s,-014.6C,00002191
2022-02-17 08:23:07 r, 00.00m,0000600172Hz,0000000000c,0000000.000s,-012.9C,00002191
2022-02-17 08:33:05 r, 00.00m,0000600084Hz,0000000000c,0000000.000s,-011.3C,00002191
2022-02-17 08:43:04 r, 00.00m,0000600052Hz,0000000000c,0000000.000s,-010.0C,00002191
2022-02-17 08:53:05 r, 00.00m,0000599879Hz,0000000000c,0000000.000s,-009.4C,00002191
2022-02-17 09:03:06 r, 00.00m,0000599921Hz,0000000000c,0000000.000s,-008.4C,00002191
2022-02-17 09:13:04 r, 00.00m,0000599830Hz,0000000000c,0000000.000s,-007.1C,00002191
2022-02-17 09:23:06 r, 00.00m,0000599654Hz,0000000000c,0000000.000s,-006.8C,00002191
2022-02-17 09:33:05 r, 00.00m,0000599685Hz,0000000000c,0000000.000s,-006.5C,00002191
2022-02-17 09:43:04 r, 00.00m,0000599667Hz,0000000000c,0000000.000s,-006.2C,00002191
2022-02-17 09:53:05 r, 00.00m,0000599625Hz,0000000000c,0000000.000s,-005.5C,00002191
2022-02-17 10:03:07 r, 00.00m,0000599364Hz,0000000000c,0000000.000s,-004.6C,00002191
2022-02-17 10:13:04 r, 00.00m,0000599398Hz,0000000000c,0000000.000s,-003.9C,00002191
2022-02-17 10:23:04 r, 00.00m,0000599431Hz,0000000000c,0000000.000s,-003.0C,00002191
2022-02-17 10:33:05 r, 00.00m,0000599227Hz,0000000000c,0000000.000s,-002.0C,00002191
2022-02-17 10:43:04 r, 00.00m,0000599181Hz,0000000000c,0000000.000s,-001.3C,00002191
2022-02-17 10:53:07 r, 00.00m,0000599081Hz,0000000000c,0000000.000s,-000.7C,00002191
2022-02-17 11:03:05 r, 00.00m,0000599027Hz,0000000000c,0000000.000s, 000.1C,00002191
2022-02-17 11:13:04 r, 00.00m,0000598964Hz,0000000000c,0000000.000s, 000.9C,00002191
2022-02-17 11:23:05 r, 00.00m,0000599027Hz,0000000000c,0000000.000s, 001.6C,00002191
2022-02-17 11:33:06 r, 00.00m,0000599047Hz,0000000000c,0000000.000s, 000.3C,00002191
2022-02-17 11:43:04 r, 00.00m,0000599059Hz,0000000000c,0000000.000s, 000.1C,00002191
2022-02-17 11:53:04 r, 00.00m,0000599064Hz,0000000000c,0000000.000s,-000.4C,00002191
2022-02-17 12:03:07 r, 00.00m,0000599032Hz,0000000000c,0000000.000s, 000.1C,00002191
2022-02-17 12:13:04 r, 00.00m,0000599062Hz,0000000000c,0000000.000s, 000.1C,00002191
2022-02-17 12:23:06 r, 00.00m,0000598983Hz,0000000000c,0000000.000s, 000.3C,00002191
2022-02-17 12:33:05 r, 00.00m,0000598956Hz,0000000000c,0000000.000s, 001.6C,00002191
2022-02-17 12:43:04 r, 00.00m,0000598753Hz,0000000000c,0000000.000s, 002.5C,00002191
2022-02-17 12:53:07 r, 00.00m,0000598714Hz,0000000000c,0000000.000s, 004.1C,00002191
2022-02-17 13:03:05 r, 00.00m,0000598573Hz,0000000000c,0000000.000s, 005.1C,00002191
2022-02-17 13:13:04 r, 00.00m,0000598514Hz,0000000000c,0000000.000s, 005.8C,00002191
2022-02-17 13:23:05 r, 00.00m,0000598752Hz,0000000000c,0000000.000s, 003.5C,00002191
2022-02-17 13:33:06 r, 00.00m,0000599149Hz,0000000000c,0000000.000s,-000.4C,00002191
2022-02-17 13:43:04 r, 00.00m,0000599272Hz,0000000000c,0000000.000s,-003.0C,00002191
2022-02-17 13:53:04 r, 00.00m,0000599264Hz,0000000000c,0000000.000s,-003.9C,00002191
2022-02-17 14:03:07 r, 00.00m,0000599474Hz,0000000000c,0000000.000s,-004.6C,00002191
2022-02-17 14:13:04 r, 00.00m,0000599473Hz,0000000000c,0000000.000s,-004.9C,00002191
2022-02-17 14:23:04 r, 00.00m,0000599478Hz,0000000000c,0000000.000s,-004.9C,00002191
2022-02-17 14:33:07 r, 00.00m,0000599322Hz,0000000000c,0000000.000s,-002.6C,00002191
2022-02-17 14:43:04 r, 00.00m,0000599060Hz,0000000000c,0000000.000s, 000.1C,00002191
2022-02-17 14:53:07 r, 00.00m,0000599015Hz,0000000000c,0000000.000s, 001.9C,00002191
2022-02-17 15:03:05 r, 00.00m,0000598855Hz,0000000000c,0000000.000s, 003.2C,00002191
2022-02-17 15:13:04 r, 00.00m,0000598831Hz,0000000000c,0000000.000s, 003.8C,00002191
2022-02-17 15:23:07 r, 00.00m,0000598765Hz,0000000000c,0000000.000s, 003.8C,00002191
2022-02-17 15:33:05 r, 00.00m,0000598810Hz,0000000000c,0000000.000s, 003.5C,00002191
2022-02-17 15:43:04 r, 00.00m,0000598870Hz,0000000000c,0000000.000s, 003.2C,00002191
2022-02-17 15:53:05 r, 00.00m,0000598947Hz,0000000000c,0000000.000s, 002.5C,00002191
2022-02-17 16:03:06 r, 00.00m,0000599035Hz,0000000000c,0000000.000s, 001.9C,00002191
2022-02-17 16:13:04 r, 00.00m,0000599057Hz,0000000000c,0000000.000s, 001.6C,00002191
2022-02-17 16:23:06 r, 00.00m,0000599077Hz,0000000000c,0000000.000s, 000.9C,00002191
2022-02-17 16:33:05 r, 00.00m,0000599065Hz,0000000000c,0000000.000s, 000.6C,00002191
2022-02-17 16:43:04 r, 00.00m,0000599057Hz,0000000000c,0000000.000s,-000.4C,00002191
2022-02-17 16:53:04 r, 00.00m,0000582907Hz,0000000000c,0000000.000s,-001.0C,00002191
2022-02-17 17:03:07 r, 00.00m,0000494343Hz,0000000000c,0000000.000s,-002.0C,00002191
2022-02-17 17:13:04 r, 00.00m,0000401607Hz,0000000000c,0000000.000s,-002.6C,00002191
2022-02-17 17:23:04 r, 06.11m,0000304591Hz,0000000000c,0000000.000s,-003.3C,00002191
2022-02-17 17:33:05 r, 06.53m,0000207353Hz,0000000000c,0000000.000s,-004.2C,00002191
2022-02-17 17:43:04 r, 07.14m,0000117957Hz,0000000000c,0000000.000s,-004.9C,00002191
2022-02-17 17:53:04 r, 08.07m,0000049997Hz,0000000000c,0000000.000s,-006.2C,00002191
2022-02-17 18:03:05 r, 09.47m,0000013760Hz,0000000000c,0000000.000s,-007.5C,00002191
2022-02-17 18:13:04 r, 11.35m,0000002450Hz,0000000000c,0000000.000s,-008.4C,00002191
2022-02-17 18:23:04 r, 13.41m,0000000366Hz,0000000000c,0000000.000s,-009.4C,00002191
2022-02-17 18:33:05 r, 15.52m,0000000053Hz,0000008886c,0000000.019s,-010.0C,00002191
2022-02-17 18:43:04 r, 17.33m,0000000010Hz,0000046968c,0000000.102s,-010.4C,00002191
2022-02-17 18:53:04 r, 18.66m,0000000003Hz,0000159386c,0000000.346s,-010.7C,00002191
2022-02-17 19:03:07 r, 19.41m,0000000002Hz,0000318149c,0000000.690s,-011.0C,00002191
2022-02-17 19:13:04 r, 19.61m,0000000001Hz,0000384000c,0000000.833s,-011.0C,00002191
2022-02-17 19:23:04 r, 19.57m,0000000001Hz,0000367836c,0000000.798s,-011.3C,00002191
2022-02-17 19:33:07 r, 19.46m,0000000001Hz,0000335032c,0000000.727s,-011.3C,00002191
2022-02-17 19:43:04 r, 19.36m,0000000001Hz,0000305408c,0000000.663s,-011.7C,00002191
2022-02-17 19:53:04 r, 19.28m,0000000002Hz,0000282923c,0000000.614s,-011.3C,00002191
2022-02-17 20:03:05 r, 19.20m,0000000002Hz,0000261997c,0000000.569s,-011.3C,00002191
2022-02-17 20:13:04 r, 19.13m,0000000002Hz,0000245070c,0000000.532s,-011.3C,00002191
2022-02-17 20:23:04 r, 19.04m,0000000002Hz,0000226407c,0000000.491s,-011.3C,00002191
2022-02-17 20:33:06 r, 18.74m,0000000003Hz,0000172614c,0000000.375s,-011.0C,00002191
2022-02-17 20:43:04 r, 18.13m,0000000004Hz,0000097633c,0000000.212s,-010.4C,00002191
2022-02-17 20:53:04 r, 17.69m,0000000007Hz,0000065223c,0000000.142s,-009.7C,00002191
2022-02-17 21:03:07 r, 17.44m,0000000009Hz,0000051910c,0000000.113s,-009.4C,00002191
2022-02-17 21:13:04 r, 16.82m,0000000016Hz,0000029192c,0000000.063s,-008.8C,00002191
2022-02-17 21:23:04 r, 17.17m,0000000011Hz,0000040539c,0000000.088s,-008.4C,00002191
2022-02-17 21:33:07 r, 17.02m,0000000013Hz,0000034817c,0000000.076s,-007.8C,00002191
2022-02-17 21:43:04 r, 16.83m,0000000016Hz,0000029324c,0000000.064s,-007.8C,00002191
2022-02-17 21:53:04 r, 17.22m,0000000011Hz,0000042082c,0000000.091s,-007.5C,00002191
2022-02-17 22:03:04 r, 16.49m,0000000021Hz,0000021638c,0000000.047s,-007.1C,00002191
2022-02-17 22:13:04 r, 16.56m,0000000020Hz,0000023050c,0000000.050s,-006.8C,00002191
2022-02-17 22:23:04 r, 16.57m,0000000019Hz,0000023350c,0000000.051s,-006.5C,00002191
2022-02-17 22:33:05 r, 16.52m,0000000020Hz,0000022364c,0000000.049s,-006.5C,00002191
2022-02-17 22:43:07 r, 16.57m,0000000020Hz,0000023413c,0000000.051s,-006.2C,00002191
2022-02-17 22:53:04 r, 16.56m,0000000020Hz,0000023034c,0000000.050s,-006.2C,00002191
2022-02-17 23:03:05 r, 16.37m,0000000024Hz,0000019412c,0000000.042s,-006.2C,00002191
2022-02-17 23:13:05 r, 16.35m,0000000025Hz,0000018985c,0000000.041s,-006.2C,00002191
2022-02-17 23:23:04 r, 16.40m,0000000023Hz,0000019871c,0000000.043s,-006.2C,00002191
2022-02-17 23:33:06 r, 16.29m,0000000025Hz,0000017962c,0000000.039s,-005.9C,00002191
2022-02-17 23:43:05 r, 16.16m,0000000029Hz,0000015936c,0000000.035s,-005.9C,00002191
2022-02-17 23:53:04 r, 16.26m,0000000026Hz,0000017589c,0000000.038s,-005.9C,00002191
